Overview Statistics Trail Chart Weather Telemetry Raw packets
 

This is the latest recevied weather packets stored in our database for station/object OM6ACB-6. If no packets are shown the sender has not sent any weather packets the latest 10 day(s).

<< 44 45 46 47 48 49 50 >>
Time Temp. Humidity Pressure Rain* Wind** Luminosity Snow
1787982064 17.78° C 24% 1018.4 hPa 0 mm - - -
1787981469 17.78° C 24% 1018.4 hPa 0 mm - - -
1787980864 17.22° C 24% 1018.2 hPa 0 mm - - -
1787980263 17.22° C 24% 1018.1 hPa 0 mm - - -
1787979663 17.22° C 24% 1018 hPa 0 mm - - -
1787979063 16.11° C 26% 1017.8 hPa 0 mm - - -
1787978463 16.11° C 35% 1017.9 hPa 0 mm - - -
1787977862 16.11° C 32% 1017.6 hPa 0 mm - - -
1787977262 16.11° C 28% 1017.5 hPa 0 mm - - -
1787976662 15.56° C 34% 1017.5 hPa 0 mm - - -
1787976061 15.56° C 38% 1017.4 hPa 0 mm - - -
1787975461 15.56° C 34% 1017.5 hPa 0 mm - - -
1787974861 15.56° C 31% 1017.4 hPa 0.25 mm - - -
1787974261 15.56° C 37% 1017.2 hPa 0.25 mm - - -
1787973660 15.56° C 34% 1017.2 hPa 0.25 mm - - -
1787973060 15.56° C 26% 1017.4 hPa 0.25 mm - - -
1787972460 15.56° C 29% 1017.3 hPa 0.25 mm - - -
1787971859 17.22° C 24% 1017.3 hPa 0.25 mm - - -
1787971259 18.33° C 23% 1017.2 hPa 0 mm - - -
1787970659 18.33° C 23% 1016.7 hPa 0 mm - - -
1787970058 17.78° C 24% 1016.6 hPa 0 mm - - -
1787969458 18.33° C 23% 1016.7 hPa 0 mm - - -
1787968858 18.33° C 23% 1016.4 hPa 0 mm - - -
1787968257 17.78° C 24% 1006.9 hPa 0 mm - - -
1787967657 18.89° C 23% 1016.3 hPa 0 mm - - -

* Rain latest hour (hover to see other rain measurements)
** Current wind speed in m/s (hover to see current wind gust speed)